Location: Pian di Sc�
(43.6333°N, 11.5500°E)
Time: 14:09:36
(UTC+00:00)

Cosmos 1544 Rocket - Pass Details

Date: 07 August 2020
Orbit: 603 x 632 km, 82.5° (Epoch: 25 September)

Event Time Altitude Azimuth Distance (km) Brightness Sun altitude
Exits shadow 02:19:59 31° 199° (SSW) 1,121 4.4 -17.2°
Maximum altitude 02:22:06 74° 279° (W) 662 3.5 -17.0°
Drops below altitude 10° 02:26:36 10° 5° (N) 2,024 6.9 -16.4°
Sets 02:28:51 0° 7° (N) 2,936 7.8 -16.1°
